COSMOS 2455 - Orbit

View from above orbital plane
View from above orbital plane
View from above satellite
View from above satellite

Ground track
Ground track

The orbit data is extracted from the following two-line orbital elements,

1 36095U 09063A   13143.24392361  .00000026  00000-0  72898-4 0  9214
2 36095 067.1496 335.5352 0006894 244.1693 088.1367 13.96679574178747
Epoch (UTC): 23 May 2013 05:51:15
Eccentricity: 0.0006894
inclination: 67.1496°
perigee height: 900 km
apogee height: 910 km
right ascension of ascending node: 335.5352°
argument of perigee: 244.1693°
revolutions per day: 13.96679574
mean anomaly at epoch: 88.1367°
orbit number at epoch: 17874

The dashed part of the orbit path shows where the satellite is in the earth's shadow,  

Developed and maintained by Chris Peat, Heavens-Above GmbH. Please read the updated FAQ before sending e-mail. Imprint. DLR